Regional Weather Roundup
Issued by NWS

Home | Current Version | Previous Version | Text Only | Print | Product List | Glossary On
Versions: 1 2 3 4 5 6 7 8 9 10 11 12 13 14 15 16 17 18 19 20 21 22 23 24 25 26 27 28 29 30 31 32 33 34 35 36 37 38 39 40 41 42 43 44 45 46 47 48 49 50
000
ASUS42 KKEY 221310
RWRKEY

FLORIDA REGIONAL WEATHER ROUNDUP FOR THE FLORIDA KEYS
NATIONAL WEATHER SERVICE KEY WEST FLORIDA
800 AM EST WED FEB 22 2017

...SOUTH FLORIDA AND THE KEYS...

CITY           SKY/WX    TMP DP  RH WIND       PRES   REMARKS
FORT MYERS     LGT RAIN  67  65  93 E7        29.76F
SW REGIONAL AP LGT RAIN  66  62  87 E7        29.77F
NAPLES         LGT RAIN  67  65  93 SE7       29.77R
MIAMI          CLOUDY    70  64  81 SE12      29.80S
WEST KENDALL   FAIR      73  63  70 SE6       29.79F
HOMESTEAD      FAIR      74  67  79 SE9       29.79S
MARATHON       FAIR      76  67  73 S10G21    29.78R
BOCA CHICA NAS RAIN      71  67  87 S20       29.76S FOG
KEY WEST INTL  RAIN      74  69  85 S18G28    29.76S

...INTERNATIONAL WEATHER...

CITY           SKY/WX    TMP DP  RH WIND       PRES   REMARKS
NASSAU BAHAMAS CLOUDY    75  59  57 E3        29.92R
CANCUN MEXICO  CLEAR     66  59  77 W10       29.87R
COZUMEL MEXICO MOCLDY    73  61  64 NW14      29.86R

ADJACENT COASTAL WATERS...

STATION/POSITION TIME  SKY/WX   TEMP    WIND        PRES    WAVE
                                AIR SEA DIR/SP/G            HT/PER
                 (UTC)          (F)     (DEG/KT/KT) (MB)    (FT/S)
PULASKI SHOAL LI 1200            66     300/ 19/ 20 1008.0R
SAND KEY         1150            74     180/ 24/ 28 1007.8F
LONG KEY         1200            75 75  170/ 16/ 17 1008.6R
MOLASSES REEF    NOT AVBL
FOWEY ROCKS      1200            75 75  130/ 24/ 27 1009.8R
Buoy 42097       1300                                 N/A     6/ 6

$$



USA.gov is the U.S. government's official web portal to all federal, state and local government web resources and services.